Home   Weather   Philadelphia   Past weeks
Flag for USA

Past Weather in Philadelphia, Pennsylvania, USA — Yesterday and Last 2 Weeks

Now
48 °F

Fog.


Feels Like: 45 °F
Forecast: 63 / 49 °F
Wind: 7 mph from East

Location: Philadelphia International Airport

Current Time: Mar 30, 2020 at 5:54:43 am

Latest Report: Mar 30, 2020 at 5:10 am


Visibility: 6 mi

Pressure: 29.94 "Hg

Humidity: 89%

Dew Point: 45 °F

Location of PhiladelphiaLocation

Past Weather in Philadelphia — Graph

°F

Philadelphia Temperature Yesterday

Maximum temperature yesterday: 52 °F (at 2:54 pm)
Minimum temperature yesterday: 47 °F (at 6:54 am)
Average temperature yesterday: 50 °F

High & Low Weather Summary for the Past Weeks

 TemperatureHumidityPressure
High78 °F (Mar 20, 4:54 pm)97% (Mar 20, 3:26 am)30.64 "Hg (Mar 20, 3:26 am)
Low36 °F (Mar 16, 6:54 am)26% (Mar 15, 7:54 pm)29.80 "Hg (Mar 27, 4:54 am)
Average48 °F70%30.17 "Hg
* Reported Mar 15 4:54 am — Mar 30 4:27 am, Philadelphia. Weather by CustomWeather, © 2020

Note: Actual official high and low records may vary slightly from our data, if they occured in-between our weather recording intervals... More about our weather records

Philadelphia Weather History for the Previous 24 Hours

Scroll right to see more
 ConditionsComfort  
Time TempWeatherWind HumidityBarometerVisibility
4:27 am
Mon, Mar 30
48 °FMostly cloudy.3 mph89%29.94 "Hg8 mi
3:54 am48 °FOvercast.6 mph89%29.94 "Hg8 mi
3:16 am49 °FMostly cloudy.No wind86%29.94 "Hg7 mi
2:54 am49 °FFog.3 mph90%29.93 "Hg6 mi
2:10 am49 °FFog.9 mph93%29.93 "Hg2 mi
1:54 am49 °FFog.10 mph90%29.91 "Hg1 mi
1:08 am49 °FFog.7 mph93%29.89 "Hg1 mi
12:54 am49 °FFog.6 mph93%29.89 "Hg2 mi
11:54 pm
Sun, Mar 29
49 °FFog.7 mph93%29.87 "Hg1 mi
11:19 pm49 °FFog.7 mph97%29.85 "Hg1 mi
10:54 pm50 °FFog.7 mph93%29.85 "Hg2 mi
10:05 pm50 °FFog.9 mph93%29.86 "Hg3 mi
9:37 pm50 °FThunderstorms. Fog.8 mph93%29.85 "Hg2 mi
8:54 pm51 °FFog.8 mph96%29.85 "Hg1 mi
7:54 pm51 °FFog.7 mph92%29.83 "Hg2 mi
7:08 pm51 °FFog.6 mph92%29.83 "Hg2 mi
6:39 pm52 °FFog.5 mph89%29.83 "Hg3 mi
6:08 pm52 °FFog.7 mph89%29.83 "Hg6 mi
5:54 pm52 °FLow clouds.10 mph86%29.81 "Hg8 mi
4:54 pm52 °FLow clouds.5 mph86%29.84 "Hg8 mi
3:54 pm52 °FLow clouds.No wind83%29.85 "Hg8 mi
2:54 pm52 °FLow clouds.9 mph83%29.82 "Hg7 mi
1:58 pm50 °FLow clouds.14 mph89%29.83 "Hg7 mi
1:15 pm50 °FFog.5 mph86%29.95 "Hg5 mi
12:54 pm50 °FLow clouds.8 mph86%29.99 "Hg10 mi
11:54 am50 °FLow clouds.8 mph86%29.94 "Hg10 mi
10:54 am49 °FLow clouds.12 mph90%29.98 "Hg10 mi
9:54 am48 °FLow clouds.10 mph93%30.00 "Hg9 mi
9:17 am48 °FLow clouds.10 mph93%30.00 "Hg8 mi
8:54 am49 °FLow clouds.6 mph90%29.99 "Hg10 mi
7:54 am48 °FLow clouds.7 mph89%29.98 "Hg10 mi
6:54 am47 °FLow clouds.12 mph93%29.96 "Hg10 mi
5:54 am48 °FLow clouds.8 mph89%29.94 "Hg10 mi
5:26 am48 °FLow clouds.10 mph89%29.94 "Hg10 mi
Weather by CustomWeather, © 2020

See weather overview

Advertising